Location: Newark
(23.5328°S, 46.7919°W)
Time: 13:35:06
(UTC+00:00)

N. Korean satellite - Pass Details

Date: 13 March 2021
Orbit: 452 x 499 km, 97.2° (Epoch: 17 April)

Event Time Altitude Azimuth Distance (km) Brightness Sun altitude
Rises 07:29:23 0° 29° (NNE) 2,579 10.4 -23.2°
Reaches altitude 10° 07:31:34 10° 38° (NE) 1,704 9.6 -22.7°
Maximum altitude 07:34:56 35° 104° (ESE) 835 8.3 -21.9°
Drops below altitude 10° 07:38:19 10° 170° (S) 1,716 9.6 -21.2°
Sets 07:40:31 0° 179° (S) 2,602 10.4 -20.7°
